Flag Weather past 2 weeks in Galway, Ireland

Now
45 °F

Passing clouds.


Feels Like: 43 °F
Forecast: 44 / 49 °F
Wind: 3 mph from Southeast

Location: Shannon Airport

Current Time: Nov 23, 2014 at 12:24:46 PM

Latest Report: Nov 23, 2014 at 12:00 PM


Visibility: N/A

Pressure: 30.18 "Hg

Humidity: 87%

Dew point: 41 °F

Location of GalwayLocation

Historic Weather in Galway — Graph

°F

Galway temperature yesterday

Maximum temperature yesterday: 50 °F (at 12:00 AM)
Minimum temperature yesterday: 36 °F (at 10:30 PM)
Average temperature yesterday: 46 °F

Past Weeks' High & Low Weather Summary

 TemperatureHumidityPressure
High55 °F (Nov 9, 12:30 PM)100% (Nov 9, 9:30 PM)30.21 "Hg (Nov 9, 9:30 PM)
Low34 °F (Nov 20, 5:30 AM)63% (Nov 8, 2:30 PM)29.03 "Hg (Nov 12, 3:30 AM)
Average47 °F91%29.55 "Hg
* Reported Nov 8 11:00 AM — Nov 23 11:00 AM, Galway, Weather by CustomWeather, © 2014

Note: Actual official high and low records may vary slightly from our data, if they occured in-between our weather recording intervals... More about our weather records

Advertising

Galway weather history for previous 24 hours

 ConditionsComfort  
Time TempWeatherWind HumidityBarometerVisibility
11:00 AM
Nov 23
43 °FFog.6 mph87%30.18 "Hg2 mi
10:30 AM43 °FFog.3 mph93%30.18 "Hg2 mi
10:00 AM39 °FFog.No wind93%30.18 "Hg2 mi
9:30 AM36 °FFog.1 mph100%30.15 "Hg3 mi
9:00 AM36 °FFog.2 mph100%30.15 "Hg3 mi
8:30 AM37 °FFog.3 mph93%30.15 "Hg2 mi
8:00 AM39 °FPassing clouds.5 mph93%30.15 "Hg5 mi
7:30 AM37 °FSprinkles. Passing clouds.1 mph93%30.15 "Hg5 mi
7:00 AM37 °FPassing clouds.2 mph100%30.12 "HgN/A
6:30 AM36 °FPassing clouds.No wind100%30.12 "HgN/A
6:00 AM37 °FPassing clouds.3 mph93%30.12 "HgN/A
5:30 AM36 °FPartly cloudy.2 mph100%30.12 "HgN/A
5:00 AM36 °FPassing clouds.2 mph100%30.12 "HgN/A
4:30 AM36 °FPassing clouds.5 mph100%30.12 "HgN/A
4:00 AM36 °FPassing clouds.No wind100%30.12 "HgN/A
3:30 AM37 °FPassing clouds.1 mph100%30.09 "HgN/A
3:00 AM36 °FPassing clouds.2 mph100%30.12 "HgN/A
2:30 AM36 °FPassing clouds.2 mph100%30.09 "HgN/A
2:00 AM37 °FPassing clouds.3 mph93%30.09 "HgN/A
1:30 AM37 °FPassing clouds.3 mph100%30.09 "HgN/A
1:00 AM37 °FPassing clouds.2 mph100%30.09 "HgN/A
12:30 AM37 °FPassing clouds.2 mph100%30.09 "HgN/A
12:00 AM37 °FSprinkles. Partly cloudy.2 mph93%30.09 "Hg4 mi
11:30 PM
Nov 22
37 °FPassing clouds.3 mph100%30.09 "HgN/A
11:00 PM37 °FPassing clouds.3 mph100%30.07 "HgN/A
10:30 PM36 °FPassing clouds.2 mph100%30.07 "HgN/A
10:00 PM37 °FPassing clouds.2 mph100%30.07 "HgN/A
9:30 PM39 °FPassing clouds.6 mph93%30.04 "HgN/A
9:00 PM39 °FPassing clouds.2 mph93%30.04 "HgN/A
8:30 PM39 °FPassing clouds.8 mph93%30.04 "HgN/A
8:00 PM43 °FPassing clouds.5 mph81%30.01 "HgN/A
7:30 PM43 °FPassing clouds.5 mph87%30.01 "HgN/A
7:00 PM43 °FPassing clouds.5 mph87%30.01 "HgN/A
6:30 PM41 °FPassing clouds.7 mph87%29.98 "HgN/A
6:00 PM45 °FPassing clouds.10 mph81%29.98 "HgN/A
5:30 PM45 °FSprinkles. Passing clouds.13 mph87%29.98 "HgN/A
5:00 PM45 °FPassing clouds.8 mph81%29.95 "HgN/A
4:30 PM46 °FScattered clouds.7 mph71%29.95 "HgN/A
4:00 PM46 °FPartly sunny.7 mph82%29.95 "HgN/A
3:30 PM46 °FBroken clouds.13 mph82%29.92 "HgN/A
3:00 PM45 °FSprinkles. Scattered clouds.14 mph87%29.92 "HgN/A
2:30 PM48 °FScattered clouds.8 mph71%29.89 "HgN/A
2:00 PM48 °FPassing clouds.7 mph71%29.89 "HgN/A
1:30 PM50 °FPassing clouds.7 mph76%29.89 "HgN/A
1:00 PM48 °FPassing clouds.12 mph82%29.89 "HgN/A
12:30 PM50 °FPassing clouds.12 mph71%29.86 "HgN/A
12:00 PM50 °FScattered clouds.8 mph76%29.86 "HgN/A
Weather by CustomWeather, © 2014

See weather overviewHow to use our weather pages